Tracking 18840 objects as of 18-November-2017
HD Live streaming from Space Station
objects crossing your sky now

FENGYUN 1C DEB

Track FENGYUN 1C DEB now!
10-day predictions


NORAD ID: 30275
Int'l Code: 1999-025YL
Perigee: 784.9 km
Apogee: 865.7 km
Inclination: 98.8 °
Period: 101.3 minutes
Semi major axis: 7196 km
RCS: 0.0208 m2 (small)
Launch date: May 10, 1999
Source: People's Republic of China (PRC)
Launch site: Taiyaun Space Center, China (TSC)

Note: This is SATELLITE DEBRIS
aabbcc
Your satellite tracking list
Your tracking list is empty




NASA's NSSDC Master Catalog

Two Line Element Set (TLE):
1 30275U 99025YL  17321.84177045  .00001119  00000-0  51722-3 0  9994
2 30275  98.8469   7.3717 0056093 138.3288 279.1028 14.22124948560506
Source of the keplerian elements: AFSPC